Regional Weather Roundup
Issued by NWS Grand Forks, ND

Home | Current Version | Previous Version | Graphics & Text | Print | Product List | Glossary On
Versions: 1 2 3 4 5 6 7 8 9 10 11 12 13 14 15 16 17 18 19 20 21 22 23 24 25 26 27 28 29 30 31 32 33 34 35 36 37 38 39 40 41 42 43 44 45 46 47 48 49 50
000
ASUS43 KFGF 011010
RWRFGF
PRAIRIE TO PINES  WEATHER ROUNDUP
NATIONAL WEATHER SERVICE EASTERN NORTH DAKOTA/GRAND FORKS ND
500 AM CDT TUE SEP 01 2015

 **SATELLITE DATA USED TO AUGMENT SKY COVER AT AUTOMATED STATIONS**
 *****  WEATHER ACROSS EASTERN NORTH DAKOTA  *****

CITY           SKY/WX    TMP DP  RH WIND       PRES   REMARKS
GRAND FORKS    PTCLDY    50  48  93 S5        29.85S
GRAND FRKS AFB PTCLDY    52  49  88 SW6       29.86R
GRAND FRKS NWS   N/A     54 N/A N/A W3          N/A
DEVILS LAKE    CLEAR     57  45  62 SE3       29.86R
FARGO          FAIR      58  57  97 CALM      29.88R
WAHPETON ARPT  CLOUDY    57  55  94 NW3       29.90S
$$

 ***** WEATHER ACROSS CENTRAL AND WESTERN NORTH DAKOTA  *****

CITY           SKY/WX    TMP DP  RH WIND       PRES   REMARKS
BISMARCK       CLEAR     54  51  90 E8        29.87F
MINOT          CLEAR     57  47  69 S3        29.83S
JAMESTOWN      MOCLDY    55  52  89 CALM      29.88F
MINOT AFB      NOT AVBL
GARRISON         N/A     53  47  79 CALM      29.86R
WILLISTON      CLEAR     50  44  80 CALM      29.83F
DICKINSON      CLEAR     55  47  74 S10       29.86S
HETTINGER      CLEAR     56  51  84 SE6       29.91R
$$

 *****  OTHER AIRPORT OBSERVATIONS IN OUR AREA  *****

CITY           SKY/WX    TMP DP  RH WIND       PRES   REMARKS
WALHALLA       FAIR      59  48  67 MISG      29.84R
GRAFTON AIRPOR FAIR      50  50 100 CALM      29.85S
VALLEY CITY AR FAIR      54  54 100 SW5       29.90R
CANDO          NOT AVBL
CAVALIER APRT  FAIR      52  48  87 SW5       29.83S
GWINNER          N/A     61  61 100 SW3       29.91S
SHEYENNE NWR     N/A     54  54  99 S2        29.95S
ROLLA          FAIR      48  45  87 SW7       29.86S
 ***** THE ABOVE OBSERVATIONS ARE NON NWS ARE NOT QUALITY
       CONTROLLED AND MAY MIS-REPORT RAIN FOR SNOW...
$$

  *****  WEATHER ACROSS NORTHERN MINNESOTA  *****

CITY           SKY/WX    TMP DP  RH WIND       PRES   REMARKS
FLAG ISLAND    PTCLDY    61  54  77 SW12      29.83R
WARROAD        PTCLDY    55  52  88 S6        29.86S
ROSEAU         PTCLDY    54  48  82 CALM      29.85S
HALLOCK        PTCLDY    48  46  93 CALM      29.84S
THF RVR FALLS    N/A    N/A N/A N/A S3        29.88R VSB 3/4
BAUDETTE       MOCLDY    54  51  90 CALM      29.86S
WASKISH        FOG       52  52 100 CALM      29.89R VSB 1/4
CROOKSTON      PTCLDY    54  52  94 SE7       29.88S
STEPHEN NDAWN    N/A     55  54  94 S5          N/A
GREENBUSH NDAW   N/A     54  52  94 S3          N/A
$$
  *****  WEATHER ACROSS CENTRAL AND WEST MINNESOTA  *****

CITY           SKY/WX    TMP DP  RH WIND       PRES   REMARKS
FOSSTON        PTCLDY    55  54  94 S3        29.90S FOG
BEMIDJI        FOG       54  54 100 CALM      29.90S VSB 1/4
PARK RAPIDS    FOG       58  56  93 CALM      29.91S VSB 1/4
ELBOW LAKE     FAIR      66  65  97 CALM      29.90R
WADENA         MOCLDY    61  61 100 CALM      29.90S FOG
DETROIT LAKES  FOG       61  59  94 CALM      29.92S VSB 1/4
MOORHEAD       MOCLDY    57  57 100 CALM      29.89S
FERGUS FALLS   CLOUDY    64  64 100 NE3       29.90R
MORRIS MN      CLOUDY    66  64  94 CALM      29.89S FOG
STAPLES        FOG       63  63 100 CALM      29.91R VSB 3/4
$$
  *****  WEATHER ELSEWHERE ACROSS MINNESOTA  *****

CITY           SKY/WX    TMP DP  RH WIND       PRES   REMARKS
DULUTH         CLOUDY    70  67  90 W6        29.89S FOG
INTRNTL FALLS  FOG       53  53 100 SW3       29.87S VSB 1/2
ELY            FOG       66  64  94 CALM      29.90S VSB 3/4
CLOQUET        CLOUDY    70  66  88 SW3       29.90S
WHEATON        CLOUDY    61  59  94 CALM      29.92R
BRAINERD       MOCLDY    67  65  93 NW3       29.90S FOG
HIBBING        CLOUDY    63  62  97 CALM      29.90R FOG
ALEXANDRIA     MOCLDY    66  66 100 NE3       29.92S FOG
SAINT CLOUD    CLOUDY    69  67  93 CALM      29.89R
MINNEAPOLIS    PTCLDY    73  66  78 S7        29.90F
$$

  *****  WEATHER ACROSS SOUTH DAKOTA  *****

CITY           SKY/WX    TMP DP  RH WIND       PRES   REMARKS
SIOUX FALLS    CLOUDY    69  66  90 E3        29.89S
BROOKINGS      CLOUDY    70  66  88 SE5       29.91S
WATERTOWN      CLOUDY    67  64  90 E3        29.91S
HURON          CLOUDY    63  62  97 NW5       29.87S
SISSETON         N/A     61  60  97 S3        29.89S
ABERDEEN       CLOUDY    60  58  92 NE7       29.88S
MITCHELL       CLOUDY    66  65  96 NW5       29.87F
PIERRE         CLEAR     59  58  96 E3        29.87F
MOBRIDGE       PTCLDY    59  58  96 SE6       29.86F
RAPID CITY     CLEAR     55  54  96 CALM      29.90R
$$

  *****  SOME WEATHER IN NEARBY STATES *****

CITY           SKY/WX    TMP DP  RH WIND       PRES   REMARKS
GLASGOW MT     CLEAR     53  44  71 E9        29.80S
GREAT FALLS MT FAIR      62  39  42 S14       29.83F
CHEYENNE WY    CLEAR     55  46  71 SW3       30.13S
SCOTTSBLUFF NE PTCLDY    58  54  86 CALM      30.00R
OMAHA NE       CLEAR     70  68  93 S8        29.92F
DES MOINES IA  CLEAR     71  67  87 S8        29.96R
DAVENPORT IA   PTCLDY    72  70  93 S6        30.01R FOG
CHICAGO IL     CLEAR     70  68  93 CALM      30.03S
EAU CLAIRE WI  CLEAR     69  68  96 S5        29.93F FOG
LA CROSSE WI   CLEAR     71  69  93 SE6       29.95R FOG
$$

  *****  SOME NATIONAL WEATHER *****

CITY           SKY/WX    TMP DP  RH WIND       PRES   REMARKS
LA GUARDIA NY  PTCLDY    77  67  71 CALM      30.00R
RALEIGH NC     FOG       69  68  96 CALM      30.08R VSB 1/2
ATLANTA GA     PTCLDY    70  66  87 CALM      30.12R
NEW ORLEANS LA MOCLDY    78  70  76 CALM      30.03S
OKLAHOMA CITY  CLEAR     69  63  81 S6        30.02R
ALBUQUERQUE NM CLOUDY    70  48  45 SE5       30.15F
SALT LAKE CITY MOCLDY    74  46  36 SE13      29.95S
LOS ANGELES CA MOCLDY    70  62  76 SE7       29.90S
BOISE ID       FAIR      60  39  45 CALM      29.90S
SEATTLE WA     CLOUDY    63  53  70 S15       29.90F
$$

*** WEATHER ACROSS MANITOBA...SASKATCHEWAN AND ONTARIO ***
                ***ONTARIO***

CITY           SKY/WX    TMP DP  RH WIND       PRES   REMARKS
GERALDTON      CLOUDY    64  63  94 SW6       29.84R FOG
THUNDER BAY    CLOUDY    63  63 100 VRB2      29.85F
SIOUX LOOKOUT  PTCLDY    61  61 100 SW5       29.82S
TORONTO        MOCLDY    66  64  94 CALM      30.07R FOG
BIG TROUT LK   CLOUDY    61  59  94 W10G18    29.63R
PICKLE LAKE    NOT AVBL
DRYDEN         CLEAR     61  59  94 S8        29.83S
KENORA         NOT AVBL
$$
                *** MANITOBA***

CITY           SKY/WX    TMP DP  RH WIND       PRES   REMARKS
BRANDON        PTCLDY    50  46  87 SW7       29.81S
DAUPHIN        CLEAR     52  46  82 SW8       29.73S
ISLAND LAKE    CLEAR     59  55  88 SW7       29.64R
PILOT MOUND      N/A     46  43  87 S5          N/A
THE PAS        PTCLDY    54  52  94 CALM      29.64S
THOMPSON       DRZL/FOG  54  54 100 VRB2      29.63R VSB 1/4
WINNIPEG       PTCLDY    55  46  71 SW7       29.80S
LYNN LAKE      FOG       46  45  93 MISG      29.61F VSB 1/4
CHURCHILL      CLOUDY    45  45 100 E5        29.67R
$$
                ***SASKATCHEWAN***

CITY           SKY/WX    TMP DP  RH WIND       PRES   REMARKS
ESTEVAN        PTCLDY    50  41  71 SW7       29.82R
KINDERSLEY     MOCLDY    50  41  71 S12       29.63F
LLOYDMINSTER   CLOUDY    55  43  62 SE8       29.54F
PRINCE ALBERT  CLOUDY    46  45  93 E5        29.63F
REGINA         PTCLDY    48  45  87 S9        29.76R
YORKTON        CLEAR     52  46  82 S9        29.73R
N. BATTLEFORD  MOCLDY    54  45  71 SE10      29.61F
LA RONGE       CLEAR     48  45  87 CALM      29.62S
SASKATOON      MOCLDY    50  45  81 S7        29.66S
SWIFT CURRENT  CLEAR     54  39  58 S13       29.73S
$$
NOTE: THESE ARE AUTOMATED STATIONS WITH LIMITED QUALITY CONTROL
      "FAIR" INDICATES FEW OR NO CLOUDS BELOW 12,000 FEET WITH NO
      SIGNIFICANT WEATHER AND/OR OBSTRUCTIONS TO VISIBILITY.
      SKY/WX - SKY CONDITION AND SIGNIFICANT WEATHER.
      TMP - AIR TEMPERATURE.    DP   - DEWPOINT TEMPERATURE.
      RH  - RELATIVE HUMIDITY.  PRES - PRESSURE.
      HX  - HEAT INDEX.         WCI  - WIND CHILL INDEX.
$


USA.gov is the U.S. government's official web portal to all federal, state and local government web resources and services.